Погода в Пуно

Перу     15°50′02″S   70°01′38″W
темп.,
°C
ветер,
м/с
пор.,
м/с
влажн.,
%
обл.,
%
осадки,
мм/ч
давл.,
гПа
погр.,
м
12 мая, ср
ср1201:00+4вюв118475 0.0 101730
04:00+4юв22915 0.0 1018102
07:00+5ююв2286100 0.0 1021161
10:00+8св327176 0.0 1019664
13:00+9в446565 0.0 1015876
16:00+8в567017 0.0 1014249
19:00+6в23815 0.0 101671
22:00+5юв2285100 0.0 101957
13 мая, чт
чт1301:00+4зсз118411 0.0 101910
04:00+4з228127 0.0 101952
07:00+5зюз227212 0.0 1022105
10:00+9с235135 0.0 10191032
13:00+9св555631 0.0 10161063
16:00+10в33566 0.8 1013328
19:00+6ююв337657 1.6 101730
22:00+6ююз227132 0.6 101912
14 мая, пт
пт1401:00+5юз226565 0.6 101913
04:00+4з11702 0.0 101917
07:00+6зсз00582 0.0 102148
10:00+8всв32540 0.0 1020684
13:00+8всв436230 0.0 1017740
16:00+5ю4577100 1.8 1016230
19:00+5з2384100 5.1 1020132
22:00+4з2288100 0.8 1023137
15 мая, сб
сб1501:00+4зсз1289100 0.9 102285
04:00+3ююз1186100 0.0 102061
07:00+4ссз2286100 0.0 1023133
10:00+8ссв11643 0.0 1020626
13:00+8всв446050 0.0 10171283
16:00+8в566414 0.0 1014251
19:00+7юв46653 0.1 101776
22:00+5ююз2264100 0.1 102019
16 мая, вс
вс1601:00+4юз1164100 0.1 102018
04:00+4юз1163100 0.0 102034
07:00+5сз0055100 0.0 102275
10:00+8св2251100 0.0 1021677
13:00+8всв425821 0.0 1018931
16:00+8в4554100 0.0 1016201
19:00+6юв2261100 0.0 101819
22:00+5ююз225555 0.0 102013